Skip Page Navigation
NASA JPL Caltech
NASA Logo - Jet Propulsion Laboratory + View the NASA Portal
+ Center for Near-Earth Object Studies
JPL Home Earth Solar System Stars & Galaxies Technology
JPL Solar System Dynamics
BODIES ORBITS EPHEMERIDES TOOLS PHYSICAL DATA DISCOVERY FAQ SITE MAP
IMPORTANT: The SSD Announcement email list is now available. Major changes are coming in the near future, including possible hostname and/or URL changes. To be notified of such changes, subscribe to this email list.

Please visit this page for more details.


JPL Small-Body Database Browser
Search: [ help ]  
65022 (2002 AQ104)
Classification: Main-belt Asteroid          SPK-ID: 2065022
Ephemeris | Orbit Diagram | Orbital Elements | Mission Design | Physical Parameters | Discovery Circumstances | Close-Approach Data ]

[ show orbit diagram ]
Orbital Elements at Epoch 2458600.5 (2019-Apr-27.0) TDB
Reference: JPL 18 (heliocentric ecliptic J2000)
 Element Value Uncertainty (1-sigma)   Units 
e .1360333120016239 4.8225e-08  
a 3.091336788608416 2.323e-08 au
q 2.670812006741549 1.5097e-07 au
i .7505968956762319 4.9083e-06 deg
node 61.31259497140684 0.00043224 deg
peri 153.6746722451436 0.00043267 deg
M 337.7469535863494 1.846e-05 deg
tp 2458723.217043370175
(2019-Aug-27.71704337)
0.00010184 TDB
period 1985.262367770138
5.44
2.2378e-05
6.127e-08
d
yr
n .1813362333585937 2.044e-09 deg/d
Q 3.511861570475283 2.6391e-08 au
  Orbit Determination Parameters
   # obs. used (total)      678  
   data-arc span      8970 days (24.56 yr)  
   first obs. used      1994-10-09  
   last obs. used      2019-05-01  
   planetary ephem.      DE431  
   SB-pert. ephem.      SB431-N16  
   condition code      0  
   norm. resid. RMS      .58278  
   source      ORB  
   producer      Otto Matic  
   solution date      2019-Jul-13 04:03:50  

Additional Information
 Earth MOID = 1.66435 au 
 Jupiter MOID = 1.45696 au 
 T_jup = 3.210 
[ show covariance matrix ]

Ephemeris | Orbit Diagram | Orbital Elements | Mission Design | Physical Parameters | Discovery Circumstances | Close-Approach Data ]

Physical Parameter Table
Parameter Symbol Value Units Sigma Reference Notes
absolute magnitude H 14.9   n/a MPO259749  
diameter diameter 4.853 km 1.020 urn:nasa:pds:neowise_diameters_albedos::2.0[mainbelt] (http://adsabs.harvard.edu/abs/2011ApJ...741...68M)  
geometric albedo albedo 0.062   0.048 urn:nasa:pds:neowise_diameters_albedos::2.0[mainbelt] (http://adsabs.harvard.edu/abs/2011ApJ...741...68M)  

65022 (2002 AQ104)          Discovered 2002-Jan-09 by LINEAR at Socorro
Reference: 20030614/Numbers.arcLast Updated: 2004-04-19

[ show close-approach data ]
Ephemeris | Orbit Diagram | Orbital Elements | Mission Design | Physical Parameters | Discovery Circumstances | Close-Approach Data ]
ABOUT SSD CREDITS/AWARDS PRIVACY/COPYRIGHT GLOSSARY LINKS
FirstGov 2020-Jan-17 16:10 UT
(server date/time)  
NASA Home Page
Site Manager:   Ryan S. Park
Webmaster  Alan B. Chamberlin